Mount Sterling, KY

5:13 PM EST on December 08, 2016 (GMT -0500)
Mount Sterling-Montgomery County

Weather History for KIOB - September, 2012

Change the Weather History Date:

Monday, September 10, 2012

  Actual Average Record
Temperature  
Mean Temperature 63 °F -  
Max Temperature 73 °F 79 °F 89 °F (2013)
Min Temperature 53 °F 59 °F 62 °F (2014)
Degree Days  
Heating Degree Days 2    
Growing Degree Days 13 (Base 50)    
Moisture  
Dew Point 52 °F    
Average Humidity 72    
Maximum Humidity 100    
Minimum Humidity 38    
Precipitation  
Precipitation 0.00 in - - ()
Sea Level Pressure  
Sea Level Pressure 30.18 in    
Wind  
Wind Speed 3 mph ()    
Max Wind Speed 9 mph    
Max Gust Speed -    
Visibility 10.0 miles    
Events      
Averages and records for this station are not official NWS values.
T = Trace of Precipitation, MM = Missing Value Source: Averaged Metar Reports

Daily Weather History Graph

Daily Weather History Graph

Search for Another Location

Airport or City:

Trip Planner

Search our weather history database for the weather conditions in past years. The results will help you decide how hot, cold, wet, or windy it might be!

Date:

Astronomy

Sep. 10, 2012 Rise Set
Actual Time 7:13 AM EDT 7:50 PM EDT
Civil Twilight 6:47 AM EDT 8:17 PM EDT
Nautical Twilight 6:15 AM EDT 8:48 PM EDT
Astronomical Twilight 5:43 AM EDT 9:20 PM EDT
Moon 1:38 AM EDT (9/10) 4:16 PM EDT (9/10)
Length of Visible Light 13h 30m
Length of Day
12h 37m
Waning Crescent, 30% of the Moon is Illuminated
Sep 10
Waning Crescent
Sep 15
New
Sep 22
First Quarter
Sep 29
Full
Oct 8
Last Quarter

Hourly Weather History & Observations

Time (EDT) Temp. Dew Point Humidity Pressure Visibility Wind Dir Wind Speed Gust Speed Precip Events Conditions
12:15 AM 60.8 °F 53.6 °F 77% 30.08 in - NE 3.5 mph - N/A   Clear
12:35 AM 60.8 °F 53.6 °F 77% 30.08 in - NNE 4.6 mph - N/A   Clear
12:55 AM 60.8 °F 53.6 °F 77% 30.09 in - NNE 3.5 mph - N/A   Clear
1:15 AM 59.0 °F 53.6 °F 82% 30.09 in - Calm Calm - N/A   Clear
1:35 AM 57.2 °F 53.6 °F 88% 30.09 in - Calm Calm - N/A   Unknown
1:55 AM 57.2 °F 53.6 °F 88% 30.09 in - NNE 3.5 mph - N/A   Unknown
2:15 AM 57.2 °F 53.6 °F 88% 30.09 in - Calm Calm - N/A   Unknown
2:35 AM 55.4 °F 53.6 °F 94% 30.10 in - NE 4.6 mph - N/A   Unknown
2:55 AM 57.2 °F 53.6 °F 88% 30.10 in - Calm Calm - N/A   Unknown
3:15 AM 57.2 °F 53.6 °F 88% 30.10 in - Calm Calm - N/A   Unknown
3:35 AM 55.4 °F 53.6 °F 94% 30.11 in - Calm Calm - N/A   Unknown
3:55 AM 55.4 °F 53.6 °F 94% 30.11 in - Calm Calm - N/A   Unknown
4:15 AM 55.4 °F 53.6 °F 94% 30.11 in - ENE 3.5 mph - N/A   Unknown
4:35 AM 53.6 °F 53.6 °F 100% 30.12 in - Calm Calm - N/A   Unknown
4:55 AM 53.6 °F 53.6 °F 100% 30.12 in - NNE 3.5 mph - N/A   Unknown
5:15 AM 55.4 °F 53.6 °F 94% 30.13 in - NE 3.5 mph - N/A   Unknown
5:35 AM 53.6 °F 53.6 °F 100% 30.13 in - Calm Calm - N/A   Unknown
5:55 AM 53.6 °F 51.8 °F 94% 30.14 in - Calm Calm - N/A   Unknown
6:15 AM 53.6 °F 53.6 °F 100% 30.15 in - Calm Calm - N/A   Unknown
6:35 AM 53.6 °F 51.8 °F 94% 30.15 in - Calm Calm - N/A   Unknown
6:55 AM 53.6 °F 51.8 °F 94% 30.17 in - NE 4.6 mph - N/A   Unknown
7:15 AM 53.6 °F 51.8 °F 94% 30.18 in - ENE 3.5 mph - N/A   Unknown
7:35 AM 53.6 °F 51.8 °F 94% 30.18 in - ENE 3.5 mph - N/A   Unknown
7:55 AM 53.6 °F 53.6 °F 100% 30.19 in - ENE 3.5 mph - N/A   Unknown
8:15 AM 55.4 °F 53.6 °F 94% 30.20 in - Calm Calm - N/A   Unknown
8:35 AM 57.2 °F 53.6 °F 88% 30.20 in - Calm Calm - N/A   Unknown
8:55 AM 59.0 °F 53.6 °F 82% 30.21 in - East 5.8 mph - N/A   Clear
9:15 AM 60.8 °F 53.6 °F 77% 30.21 in - East 8.1 mph - N/A   Clear
9:35 AM 62.6 °F 53.6 °F 72% 30.21 in - East 9.2 mph - N/A   Clear
9:55 AM 62.6 °F 51.8 °F 68% 30.22 in - East 8.1 mph - N/A   Clear
10:15 AM 64.4 °F 51.8 °F 64% 30.23 in - East 9.2 mph - N/A   Clear
10:35 AM 64.4 °F 51.8 °F 64% 30.23 in - East 6.9 mph - N/A   Clear
10:55 AM 68.0 °F 50.0 °F 52% 30.23 in - East 9.2 mph - N/A   Clear
11:15 AM 68.0 °F 50.0 °F 52% 30.23 in - SE 6.9 mph - N/A   Unknown
11:35 AM 68.0 °F 50.0 °F 52% 30.23 in - East 5.8 mph - N/A   Clear
11:55 AM 68.0 °F 50.0 °F 52% 30.23 in - East 9.2 mph - N/A   Clear
12:15 PM 69.8 °F 48.2 °F 46% 30.23 in 10.0 mi East 9.2 mph - N/A   Clear
12:35 PM 69.8 °F 50.0 °F 49% 30.23 in 10.0 mi East 4.6 mph - N/A   Clear
12:55 PM 71.6 °F 50.0 °F 46% 30.23 in 10.0 mi East 9.2 mph - N/A   Clear
1:15 PM 71.6 °F 48.2 °F 43% 30.23 in 10.0 mi ESE 4.6 mph - N/A   Clear
1:35 PM 71.6 °F 46.4 °F 41% 30.22 in 10.0 mi East 4.6 mph - N/A   Clear
2:15 PM 71.6 °F 46.4 °F 41% 30.21 in 10.0 mi East 3.5 mph - N/A   Clear
2:35 PM 73.4 °F 46.4 °F 38% 30.20 in 10.0 mi Calm Calm - N/A   Clear
2:55 PM 71.6 °F 48.2 °F 43% 30.20 in 10.0 mi NNE 4.6 mph - N/A   Clear
3:15 PM 73.4 °F 46.4 °F 38% 30.19 in 10.0 mi East 6.9 mph - N/A   Clear
3:35 PM 73.4 °F 48.2 °F 41% 30.18 in 10.0 mi NNE 4.6 mph - N/A   Clear
3:55 PM 71.6 °F 46.4 °F 41% 30.18 in 10.0 mi ENE 6.9 mph - N/A   Clear
4:15 PM 73.4 °F 48.2 °F 41% 30.18 in 10.0 mi NNE 5.8 mph - N/A   Scattered Clouds
4:35 PM 73.4 °F 50.0 °F 44% 30.18 in 10.0 mi NE 5.8 mph - N/A   Scattered Clouds
4:55 PM 73.4 °F 50.0 °F 44% 30.18 in 10.0 mi NE 5.8 mph - N/A   Clear
5:15 PM 73.4 °F 50.0 °F 44% 30.19 in 10.0 mi ENE 6.9 mph - N/A   Clear
5:35 PM 73.4 °F 48.2 °F 41% 30.18 in 10.0 mi NNE 4.6 mph - N/A   Clear
5:55 PM 71.6 °F 48.2 °F 43% 30.19 in 10.0 mi North 3.5 mph - N/A   Clear
6:15 PM 71.6 °F 48.2 °F 43% 30.18 in 10.0 mi NNE 4.6 mph - N/A   Clear
6:35 PM 71.6 °F 50.0 °F 46% 30.19 in 10.0 mi NNE 4.6 mph - N/A   Clear
6:55 PM 69.8 °F 50.0 °F 49% 30.19 in 10.0 mi Calm Calm - N/A   Clear
7:15 PM 69.8 °F 50.0 °F 49% 30.19 in - Calm Calm - N/A   Clear
7:35 PM 68.0 °F 50.0 °F 52% 30.19 in 10.0 mi Calm Calm - N/A   Clear
7:55 PM 66.2 °F 51.8 °F 60% 30.19 in 10.0 mi Calm Calm - N/A   Clear
8:15 PM 60.8 °F 53.6 °F 77% 30.19 in - Calm Calm - N/A   Clear
8:35 PM 60.8 °F 53.6 °F 77% 30.19 in 10.0 mi Calm Calm - N/A   Clear
8:55 PM 59.0 °F 53.6 °F 82% 30.20 in - Calm Calm - N/A   Clear
9:15 PM 59.0 °F 53.6 °F 82% 30.20 in - Calm Calm - N/A   Unknown
9:35 PM 55.4 °F 53.6 °F 94% 30.21 in - Calm Calm - N/A   Unknown
9:55 PM 55.4 °F 53.6 °F 94% 30.21 in - Calm Calm - N/A   Unknown
10:15 PM 53.6 °F 53.6 °F 100% 30.21 in - Calm Calm - N/A   Unknown
10:35 PM 53.6 °F 53.6 °F 100% 30.21 in - Calm Calm - N/A   Unknown
10:55 PM 53.6 °F 53.6 °F 100% 30.21 in - Calm Calm - N/A   Unknown
11:15 PM 55.4 °F 53.6 °F 94% 30.21 in - Calm Calm - N/A   Unknown
11:35 PM 53.6 °F 51.8 °F 94% 30.21 in - Calm Calm - N/A   Unknown
11:55 PM 53.6 °F 51.8 °F 94% 30.22 in - Calm Calm - N/A   Unknown